www.pogodaiklimat.ru

Погода и климат >> Архив погоды >> Франц. Южн. Территории >> Порт-о-Франсе


ПОГОДА в Порт-о-Франсе

  • Прогноз погоды в Порт-о-Франсе
  • Монитор погоды в Порт-о-Франсе

АРХИВ ПОГОДЫ в Порт-о-Франсе

Время (UTC), дата Ветер
(напр.,м/с)
 
Видим.   Явления Облачность Т
(С)
Тd
(С)
f
(%)
Тe
(С)
Тes
(С)
Комфортность P
(гПа)
Po
(гПа)
Тmin
(С)
Tmax
(С)
R
(мм)
R24
(мм)
S
(см)
10 12.06 З 10
{14}
н/о н/о +6.4 -0.1 63 +1 +1 1008.1 1004.4
11 12.06 З 10
{14}
н/о н/о +5.7 +0.2 68 -0 -0 1008.8 1005.1
12 12.06 СЗ 5
{12}
н/о н/о +4.7 +0.1 72 0 0 1009.4 1005.7
13 12.06 СЗ 6
{11}
н/о н/о +4.6 +0.2 73 -1 -1 1008.9 1005.2
14 12.06 СЗ 9
{13}
н/о н/о +5.0 +0.4 72 -1 -1 1009.0 1005.3
15 12.06 СЗ 11
{15}
н/о н/о +5.4 +1.1 74 -1 -1 1008.3 1004.6
16 12.06 СЗ 14
{21}
н/о н/о +6.0 +2.3 77 -1 -1 1007.4 1003.7
17 12.06 СЗ 10
{20}
н/о н/о +6.4 +2.7 77 +1 +1 1007.1 1003.4
18 12.06 СЗ 7
{16}
н/о н/о +7.4 +3.3 75 +3 +3 1006.5 1002.8 +7.6
19 12.06 СЗ 12
{17}
н/о н/о +8.1 +4.9 80 +3 +3 1004.2 1000.6
20 12.06 З 14
{24}
н/о н/о +9.7 +6.4 80 +4 +4 1002.6 999.0
21 12.06 З 14
{23}
н/о н/о +10.0 +6.7 80 +5 +5 1002.5 998.9
22 12.06 СЗ 16
{22}
н/о н/о +10.5 +7.2 80 +5 +5 1002.1 998.5
23 12.06 СЗ 17
{23}
н/о н/о +10.8 +7.3 79 +6 +6 1001.0 997.4
00 13.06 СЗ 14
{23}
н/о н/о +10.7 +7.8 82 +6 +6 1000.9 997.3
01 13.06 З 12
{20}
н/о н/о +10.3 +7.2 81 +6 +6 1000.3 996.7
02 13.06 СЗ 15
{23}
н/о н/о +10.2 +6.7 79 +5 +5 999.7 996.1
03 13.06 СЗ 16
{24}
15 км 6/6 700 м
[Sc diur, vesp As trans]
+10.8 +7.1 78 +6 +6 999.0 995.4
04 13.06 СЗ 14
{23}
н/о н/о +11.0 +8.2 83 +6 +6 997.5 993.9
05 13.06 СЗ 18
{24}
н/о н/о +10.1 +8.4 89 +4 +4 996.2 992.6 0.0
06 13.06 СЗ 14
{22}
н/о н/о +9.9 +8.3 90 +4 +4 995.7 992.1 +5.4 0.0
07 13.06 СЗ 16
{23}
н/о н/о +11.1 +9.0 87 +6 +6 993.5 989.9 0.6
08 13.06 СЗ 17
{25}
н/о н/о +10.6 +8.5 87 +5 +5 992.2 988.6 3
09 13.06 СЗ 16
{26}
н/о н/о +11.1 +9.0 87 +6 +6 990.8 987.3 6
10 13.06 СЗ 20
{30}
н/о н/о +11.9 +8.6 80 +7 +7 989.8 986.3 0.5
11 13.06 З 21
{30}
н/о н/о +10.6 +4.7 67 +5 +5 990.8 987.2 0.0
12 13.06 З 25
{35}
6000 м 9/9 700 м
[Sc diur, vesp As op]
+7.4 -1.6 53 0 0 992.2 988.6 6
13 13.06 З 21
{34}
н/о н/о +6.1 -2.5 54 -1 -1 994.0 990.4
14 13.06 З 20
{30}
н/о н/о +5.9 -3.0 53 -2 -2 994.9 991.3
15 13.06 З 19
{26}
н/о н/о +5.6 -2.7 55 -2 -2 996.0 992.4
16 13.06 З 16
{26}
н/о н/о +5.0 -2.1 60 -2 -2 996.5 992.8
17 13.06 З 18
{25}
н/о н/о +5.1 -2.7 57 -2 -2 997.1 993.4
18 13.06 З 16
{24}
н/о н/о +4.8 -2.5 59 -3 -3 997.8 994.1 +12.1 6
19 13.06 З 17
{24}
н/о н/о +4.7 -1.3 65 -3 -3 997.7 994.0
20 13.06 З 15
{23}
н/о н/о +2.7 -0.2 81 -6 -6 998.1 994.4 0.2
21 13.06 З 13
{22}
н/о н/о +3.8 -2.2 65 -4 -4 998.1 994.4 0.4
22 13.06 З 12
{20}
н/о н/о +3.8 -2.6 63 -3 -3 998.2 994.5
23 13.06 З 14
{23}
н/о н/о +3.6 -2.2 66 -4 -4 998.6 994.9
00 14.06 З 17
{22}
н/о н/о +3.2 -1.4 72 -5 -5 998.8 995.1 0.4
01 14.06 З 13
{18}
н/о н/о +2.6 -1.4 75 -5 -5 999.5 995.8
02 14.06 З 14
{21}
н/о н/о +2.6 -1.8 73 -5 -5 1000.4 996.7
03 14.06 З 12
{24}
н/о н/о +3.0 -3.2 64 -4 -4 1001.0 997.3
04 14.06 З 13
{23}
н/о н/о +2.0 -1.4 78 -6 -6 1002.0 998.3 0.0
05 14.06 З 14
{20}
н/о н/о +3.4 -2.6 65 -4 -4 1002.4 998.7 0.0
06 14.06 З 15
{25}
25 км 4/4 800 м
[Sc diur, vesp]
+3.2 -2.3 67 -5 -5 1003.5 999.8 +2.2 7
07 14.06 З 15
{24}
н/о н/о +2.4 -3.1 67 -6 -6 1005.0 1001.3
08 14.06 З 14
{21}
н/о н/о +3.3 -3.1 63 -4 -4 1005.3 1001.6
09 14.06 З 13
{26}
н/о н/о +3.0 -2.5 67 -5 -5 1005.9 1002.2
10 14.06 З 16
{21}
н/о н/о +2.6 -3.3 65 -6 -6 1008.0 1004.3
11 14.06 З 15
{20}
н/о н/о +2.6 -3.7 63 -6 -6 1008.7 1005.0
12 14.06 З 13
{21}
20 км 6/6 800 м
[Sc diur, vesp]
+2.4 -2.9 68 -5 -5 1010.3 1006.6
13 14.06 З 12
{19}
н/о н/о +2.7 -3.6 63 -5 -5 1011.8 1008.1
14 14.06 З 7
{18}
н/о н/о +2.7 -3.6 63 -3 -3 1013.1 1009.4
15 14.06 З 11
{16}
н/о н/о +2.8 -4.0 61 -4 -4 1013.4 1009.7
16 14.06 З 8
{14}
н/о н/о +2.6 -4.0 62 -4 -4 1014.3 1010.5
17 14.06 З 11
{14}
н/о н/о +2.8 -3.3 64 -4 -4 1015.2 1011.4
18 14.06 З 6
{14}
н/о н/о +2.8 -2.9 66 -3 -3 1016.1 1012.3 +4.0
19 14.06 З 8
{13}
н/о н/о +2.7 -3.2 65 -3 -3 1016.5 1012.7
20 14.06 З 6
{13}
н/о н/о +2.1 -3.6 66 -4 -4 1017.1 1013.3
21 14.06 З 8
{11}
н/о н/о +2.3 -3.4 66 -4 -4 1017.0 1013.2
22 14.06 СЗ 8
{14}
н/о н/о +1.9 -3.2 69 -5 -5 1017.6 1013.8
23 14.06 СЗ 8
{11}
н/о н/о +1.9 -2.6 72 -5 -5 1017.4 1013.6
00 15.06 СЗ 6
{11}
н/о н/о +1.4 -2.6 75 -5 -5 1017.1 1013.3
01 15.06 СЗ 7
{10}
н/о н/о +2.2 -2.7 70 -4 -4 1016.7 1012.9
02 15.06 СЗ 13
{18}
н/о н/о +2.8 -2.3 69 -5 -5 1015.6 1011.8
03 15.06 СЗ 12
{18}
н/о н/о +3.2 -2.1 68 -4 -4 1015.5 1011.8
04 15.06 СЗ 4
{16}
н/о н/о +2.9 -1.8 71 -2 -2 1015.8 1012.0
05 15.06 СЗ 7
{13}
н/о н/о +3.9 -0.9 71 -2 -2 1014.8 1011.1
06 15.06 СЗ 6
{12}
н/о н/о +5.1 -0.5 67 0 0 1014.2 1010.5 +1.4
07 15.06 СЗ 15
{24}
н/о н/о +5.8 -0.1 66 -1 -1 1012.4 1008.7
08 15.06 СЗ 19
{24}
н/о н/о +5.0 -0.4 68 -3 -3 1011.9 1008.2
09 15.06 СЗ 14
{22}
н/о н/о +5.2 +0.8 73 -2 -2 1011.2 1007.5
10 15.06 СЗ 11
{21}
н/о н/о +5.2 +0.9 74 -1 -1 1010.8 1007.1
11 15.06 СЗ 11
{16}
н/о н/о +5.0 +0.9 75 -2 -2 1010.0 1006.3
12 15.06 СЗ 11
{19}
н/о н/о +5.1 +0.7 73 -1 -1 1009.1 1005.4
13 15.06 СЗ 13
{17}
н/о н/о +5.2 +1.1 75 -2 -2 1008.2 1004.5
14 15.06 СЗ 13
{18}
н/о н/о +5.1 +1.4 77 -2 -2 1007.6 1003.9
15 15.06 СЗ 13
{16}
н/о н/о +5.6 +2.1 78 -1 -1 1006.9 1003.2
16 15.06 СЗ 12
{19}
н/о н/о +5.4 +2.6 82 -1 -1 1005.8 1002.1
17 15.06 СЗ 5
{16}
н/о н/о +5.7 +2.5 80 +1 +1 1005.4 1001.7
18 15.06 СЗ 7
{10}
н/о н/о +5.8 +2.4 79 +1 +1 1004.4 1000.7 +6.0
19 15.06 СЗ 5
{11}
н/о н/о +5.7 +2.3 79 +2 +2 1003.6 999.9
20 15.06 СЗ 8
{14}
н/о н/о +5.8 +3.0 82 0 0 1002.9 999.2
21 15.06 СЗ 7
{13}
н/о н/о +5.4 +2.2 80 0 0 1002.2 998.5
22 15.06 СЗ 10
{15}
н/о н/о +4.7 +1.4 79 -2 -2 1001.8 998.1
23 15.06 СЗ 8
{12}
н/о н/о +4.5 +1.3 80 -2 -2 1001.8 998.1
00 16.06 З 8
{12}
н/о н/о +4.2 +1.1 80 -2 -2 1001.7 998.0
01 16.06 З 8
{14}
н/о н/о +4.3 -1.3 67 -2 -2 1004.0 1000.3
02 16.06 З 10
{15}
н/о н/о +4.0 -2.0 65 -3 -3 1004.3 1000.6
03 16.06 З 11
{14}
н/о н/о +3.7 -2.5 64 -3 -3 1004.8 1001.1
04 16.06 З 10
{15}
н/о н/о +4.0 -2.9 61 -2 -2 1005.8 1002.1
05 16.06 З 5
{12}
н/о н/о +4.6 -2.5 60 0 0 1006.4 1002.7
06 16.06 З 9
{14}
н/о н/о +5.0 -2.8 57 -1 -1 1007.3 1003.6 +3.7
07 16.06 СЗ 5
{8}
н/о н/о +5.4 -2.4 57 +1 +1 1007.5 1003.8
08 16.06 СЗ 7
{10}
н/о н/о +5.5 -2.4 57 +1 +1 1006.9 1003.2
09 16.06 СЗ 7
{10}
н/о н/о +4.8 -1.9 62 -0 -0 1006.6 1002.9
10 16.06 СЗ 9
{15}
н/о н/о +4.9 -1.3 64 -1 -1 1006.3 1002.6
11 16.06 СЗ 8
{12}
н/о н/о +4.5 -1.9 63 -1 -1 1005.4 1001.7
12 16.06 С 9
{13}
н/о н/о +4.6 -1.0 67 -1 -1 1003.7 1000.0
13 16.06 СЗ 9
{13}
н/о н/о +4.8 -0.2 70 -1 -1 1002.6 998.9
14 16.06 С 15
{20}
н/о н/о +4.6 +1.3 79 -3 -3 999.8 996.1
15 16.06 С 13
{19}
н/о н/о +5.1 +2.1 81 -2 -2 998.1 994.4
16 16.06 С 17
{24}
н/о н/о +5.2 +3.7 90 -3 -3 993.5 989.9 2
17 16.06 С 25
{34}
н/о н/о +6.4 +5.0 91 -2 -2 988.9 985.3 1
18 16.06 СЗ 26
{39}
н/о н/о +9.7 +6.6 81 +3 +3 988.0 984.4 +5.9 5
19 16.06 СЗ 20
{36}
н/о н/о +8.3 +4.7 78 +2 +2 987.1 983.5 0.2
20 16.06 СЗ 19
{28}
н/о н/о +6.4 +0.9 68 -1 -1 987.4 983.8
21 16.06 СЗ 22
{31}
н/о н/о +6.5 +0.2 64 -1 -1 986.2 982.6 0.2
22 16.06 СЗ 20
{31}
н/о н/о +5.9 -0.2 65 -2 -2 986.1 982.5
23 16.06 СЗ 19
{34}
н/о н/о +5.4 -0.7 65 -2 -2 985.6 982.0
00 17.06 СЗ 18
{27}
н/о н/о +4.6 -0.2 71 -3 -3 985.6 982.0 0.4
01 17.06 СЗ 17
{27}
н/о н/о +4.2 0.0 74 -4 -4 986.3 982.7 0.4
02 17.06 З 20
{32}
н/о н/о +4.6 -1.8 63 -4 -4 987.6 984.0
03 17.06 З 20
{34}
10 км слаб. ливневой дождь 6/6 700 м
[Sc diur, vesp]
+4.3 -3.0 59 -4 -4 988.8 985.2 0.4
04 17.06 З 21
{30}
н/о н/о +3.6 -2.6 64 -5 -5 990.8 987.1 0.0
05 17.06 З 20
{29}
н/о н/о +3.2 -2.5 66 -6 -6 991.9 988.2 0.0
06 17.06 З 21
{29}
2000 м ливневой дождь со снегом 10/10 700 м
[Cu med, cong]
+1.4 -3.1 72 -8 -8 992.6 988.9 +3.8 6
07 17.06 З 22
{29}
н/о н/о +3.5 -3.5 60 -5 -5 992.2 988.5 0.0
08 17.06 З 15
{26}
н/о н/о +4.0 -4.0 56 -4 -4 993.8 990.1 0.0
09 17.06 З 17
{24}
н/о н/о +3.8 -3.0 61 -4 -4 994.2 990.5 0.0
10 17.06 З 14
{27}
н/о н/о +1.9 -2.1 75 -7 -7 995.2 991.5 0.0
11 17.06 З 16
{26}
н/о н/о +2.7 -2.8 67 -6 -6 995.4 991.7 0.0
12 17.06 З 17
{25}
20 км 5/5 700 м
[Sc diur, vesp]
+2.3 -3.2 67 -6 -6 996.8 993.1 0.0
13 17.06 З 18
{26}
н/о н/о +3.0 -3.8 61 -6 -6 997.4 993.7
14 17.06 З 17
{27}
н/о н/о +1.9 -2.2 74 -7 -7 998.7 995.0 0.2
15 17.06 З 13
{20}
н/о н/о +2.6 -2.1 71 -5 -5 1000.2 996.5 0.2
16 17.06 З 11
{22}
н/о н/о +1.9 -2.2 74 -6 -6 1001.3 997.6
17 17.06 З 13
{22}
н/о н/о +2.0 -2.7 71 -6 -6 1002.2 998.5
18 17.06 З 12
{18}
н/о н/о +1.7 -1.7 78 -6 -6 1003.1 999.4 +4.5 0.2
19 17.06 З 12
{17}
н/о н/о +2.6 -3.3 65 -5 -5 1003.6 999.9
20 17.06 З 10
{16}
н/о н/о +2.5 -3.2 66 -5 -5 1004.4 1000.7
21 17.06 З 9
{14}
н/о н/о +2.7 -4.3 60 -4 -4 1004.9 1001.2
22 17.06 СЗ 11
{14}
н/о н/о +2.1 -4.2 63 -5 -5 1005.0 1001.3
23 17.06 З 11
{16}
н/о н/о +2.4 -3.5 65 -5 -5 1004.8 1001.1
00 18.06 СЗ 9
{14}
н/о н/о +2.4 -2.5 70 -4 -4 1004.2 1000.5
01 18.06 СЗ 7
{13}
н/о н/о +2.6 -2.7 68 -3 -3 1003.4 999.7
02 18.06 СЗ 7
{10}
н/о н/о +2.3 -1.7 75 -4 -4 1002.1 998.4
03 18.06 СЗ 9
{13}
н/о н/о +2.4 -0.4 82 -5 -5 1001.0 997.3
04 18.06 СЗ 9
{15}
н/о н/о +3.4 -0.1 78 -3 -3 999.8 996.1 0.0
05 18.06 СЗ 12
{21}
н/о н/о +4.1 +0.4 77 -3 -3 997.8 994.1 0.0
06 18.06 СЗ 11
{18}
12 км слаб. ливневой дождь 10/10 800 м
[Sc diur, vesp]
+5.5 +1.8 77 -1 -1 995.6 992.0 +1.1 0.2
07 18.06 СЗ 16
{25}
н/о н/о +6.0 +2.5 78 -1 -1 991.6 988.0 0.4
08 18.06 СЗ 19
{28}
н/о н/о +7.2 +3.6 78 0 0 988.4 984.8 0.2
09 18.06 СЗ 15
{28}
н/о н/о +6.7 +4.4 85 -0 -0 987.5 983.9 1
10 18.06 СЗ 11
{19}
н/о н/о +7.7 +5.5 86 +2 +2 986.5 982.9 0.2
11 18.06 СЗ 12
{19}
н/о н/о +7.5 +5.1 85 +2 +2 985.6 982.0 0.0
12 18.06 З 12
{17}
20 км 6/6 800 м
[Sc diur, vesp]
+7.6 +4.5 81 +2 +2 984.9 981.3 1
13 18.06 З 7
{17}
н/о н/о +6.9 +4.6 85 +2 +2 984.8 981.2
14 18.06 З 7
{13}
н/о н/о +6.9 +4.0 82 +2 +2 984.5 980.9
15 18.06 СЗ 10
{14}
н/о н/о +6.4 +3.2 80 +1 +1 984.7 981.1
16 18.06 СЗ 10
{16}
н/о н/о +5.4 +1.3 75 -1 -1 984.4 980.8
17 18.06 СЗ 12
{14}
н/о н/о +4.1 -0.7 71 -3 -3 984.3 980.7
18 18.06 З 10
{15}
н/о н/о +3.2 -1.4 72 -4 -4 984.2 980.6 +8.1 1
19 18.06 З 9
{14}
н/о н/о +3.4 -1.6 70 -3 -3 984.8 981.2
20 18.06 З 13
{16}
н/о н/о +2.9 -1.8 71 -5 -5 985.7 982.1
21 18.06 З 9
{16}
н/о н/о +2.2 -3.9 64 -4 -4 986.1 982.4
22 18.06 З 10
{15}
н/о н/о +1.8 -3.1 70 -5 -5 987.3 983.6
23 18.06 З 10
{14}
н/о н/о +1.5 -5.0 62 -6 -6 987.2 983.5
00 19.06 З 11
{16}
н/о н/о +1.3 -6.5 56 -6 -6 986.7 983.0
01 19.06 СЗ 9
{16}
н/о н/о +0.8 -4.2 69 -6 -6 987.4 983.7
02 19.06 СЗ 8
{16}
н/о н/о -0.6 -3.3 82 -8 -8 987.2 983.5
03 19.06 СЗ 7
{12}
н/о н/о -0.7 -4.8 74 -8 -8 987.0 983.3
05 19.06 СЗ 3
{11}
н/о н/о -0.3 -3.0 82 -5 -5 987.1 983.4 0.2
06 19.06 СЗ 3
{11}
20 км 6/6 700 м
[Cu med, cong Ci fib]
+1.2 -3.7 70 -3 -2 987.1 983.4 -1.4 1
07 19.06 СЗ 5
{10}
н/о н/о +1.4 -2.6 75 -4 -4 987.4 983.7
08 19.06 ЮЗ 4
{8}
н/о н/о +0.4 -1.4 88 -5 -5 988.3 984.6

 

Местоположение метеостанции Порт-о-Франсе (Франц. Южн. Территории): широта -49.30 долгота 70.20 высота над уровнем моря 30 м.

В архиве по умолчанию представлена погода в Порт-о-Франсе за последнюю неделю. Архивные данные за месяц целиком и за предыдущие месяцы, начиная с января 2011 года, Вы можете получить, выбрав интересующий диапазон дат из раскрывающегося списка и нажав кнопку "Ввод!".


*Определитесь, кто Вы:
робот инопланетянин человек

Внимание! Время в таблицах - всемирное. Для получения местного времени необходимо прибавить поправку, которая равна 5 ч.

Смотрите также архив погоды в соседних городах и на ближайших метеорологических станциях:

Погода на Острове Херд (Тасмания, Австралия) (489 км)
Погода на Базе Alfred Faure (Франц. Южн. Территории) (1401 км)
Погода в Мартен-де-Вивье (Франц. Южн. Территории) (1406 км)
Погода на Моусоне (Антарктида) (2076 км)
Погода на Davis (Whoop Whoop) (Антарктида) (2184 км)
Погода на Davis (Антарктида) (2186 км)

Пояснения к столбцам:

Ветер - указаны скорость ветра в м/с - средняя за 10 мин, порывы в срок и между сроками (в фигурных скобках) и направление, откуда дует ветер: С - северный, СВ - северо-восточный, В - восточный, ЮВ - юго-восточный, Ю - южный, ЮЗ - юго-западный, З - западный, СЗ - северо-западный.
Видимость - горизонтальная дальность видимости в метрах или километрах. При видимости от 1 до 10 км при отсутствии осадков обычно наблюдается дымка, при ухудшении видимости до 1 км и менее - туман. В сухую погоду видимость может ухудшаться дымом, пылью или мглою.
Явления - указаны атмосферные явления, наблюдавшиеся в срок или в последний час перед сроком; фигурными скобками обозначены явления, наблюдавшиеся между сроками (за 1-3 часа до срока); квадратными скобками обозначены град или гололедные отложения с указанием их диаметра в мм.
Облачность - указаны через наклонную черту общая и нижняя облачность в баллах и высота нижней границы облаков в метрах; квадратными скобками обозначены формы облаков: Ci - перистые, Cs - перисто-слоистые, Cc - перисто-кучевые, Ac - высококучевые, As - высокослоистые, Sc - слоисто-кучевые, Ns - слоисто-дождевые, Cu - кучевые, Cb - кучево-дождевые. Подробнее классификацию облаков см. в Атласе облаков (PDF).
T - Температура воздуха - температура, измеренная на высоте 2 м над землей.
Td - Температура точки росы - температура, при понижении до которой содержащийся в воздухе водяной пар достигнет насыщения.
f - Относительная влажность воздуха - влажноcть воздуха, измеренная на высоте 2 м над землей.
Te - Эффективная температура - температура, которую ощущает одетый по сезону человек в тени. Характеристика душности погоды. При расчете учитывается влияние влажности воздуха и скорости ветра на теплоощущения человека.
Tes - Эффективная температура на солнце - температура, которую ощущает человек, с поправкой на солнечный нагрев. Характеристика знойности погоды. Зависит от высоты солнца над горизонтом, облачности и скорости ветра. Ночью, в пасмурную погоду, а также при ветре 12 м/с и более поправка равна нулю.
P - Атмосферное давление - приведенное к уровню моря атмосферное давление.
Po - Атмосферное давление - измеренное на уровне метеостанции атмосферное давление.
Tmin - Минимальная температура - минимум температуры воздуха на высоте 2 м над землей.
Tmax - Максимальная температура - максимум температуры воздуха на высоте 2 м над землей.
R - Количество осадков - Количество выпавших осадков за период времени, мм. При наведении курсора мыши на число - период времени, за который выпало указанное количество осадков.
R24 - Количество осадков - Количество выпавших осадков за 24 часа, мм.
S - Снежный покров - Высота снежного покрова, см. При наведении курсора мыши на число - состояние снежного покрова и степень покрытия местности в баллах.